Year,Month,Day,Hour,Minute,Value (Times are PST for temperature in C)
2013,07,15,00,00,13.60
2013,07,15,00,01,13.60
2013,07,15,00,02,13.50
2013,07,15,00,03,13.50
2013,07,15,00,04,13.40
2013,07,15,00,05,13.30
2013,07,15,00,06,13.20
2013,07,15,00,07,13.20
2013,07,15,00,08,13.10
2013,07,15,00,09,13.10
2013,07,15,00,10,13.00
2013,07,15,00,11,12.90
2013,07,15,00,12,12.90
2013,07,15,00,13,12.80
2013,07,15,00,14,12.70
2013,07,15,00,15,12.70
2013,07,15,00,16,12.60
2013,07,15,00,17,12.60
2013,07,15,00,18,12.60
2013,07,15,00,19,12.50
2013,07,15,00,20,12.50
2013,07,15,00,21,12.50
2013,07,15,00,22,12.40
2013,07,15,00,23,12.40
2013,07,15,00,24,12.40
2013,07,15,00,25,12.40
2013,07,15,00,26,12.40
2013,07,15,00,27,12.40
2013,07,15,00,28,12.40
2013,07,15,00,29,12.40
2013,07,15,00,30,12.40
2013,07,15,00,31,12.30
2013,07,15,00,32,12.30
2013,07,15,00,33,12.30
2013,07,15,00,34,12.30
2013,07,15,00,35,12.30
2013,07,15,00,36,12.30
2013,07,15,00,37,12.30
2013,07,15,00,38,12.30
2013,07,15,00,39,12.30
2013,07,15,00,40,12.20
2013,07,15,00,41,12.20
2013,07,15,00,42,12.20
2013,07,15,00,43,12.20
2013,07,15,00,44,12.20
2013,07,15,00,45,12.20
2013,07,15,00,46,12.20
2013,07,15,00,47,12.20
2013,07,15,00,48,12.20
2013,07,15,00,49,12.20
2013,07,15,00,50,12.20
2013,07,15,00,51,12.10
2013,07,15,00,52,12.10
2013,07,15,00,53,12.10
2013,07,15,00,54,12.10
2013,07,15,00,55,12.10
2013,07,15,00,56,12.10
2013,07,15,00,57,12.00
2013,07,15,00,58,12.00
2013,07,15,00,59,12.00
2013,07,15,01,00,12.00
2013,07,15,01,01,11.90
2013,07,15,01,02,11.90
2013,07,15,01,03,11.90
2013,07,15,01,04,11.90
2013,07,15,01,05,11.90
2013,07,15,01,06,11.80
2013,07,15,01,07,11.80
2013,07,15,01,08,11.80
2013,07,15,01,09,11.80
2013,07,15,01,10,11.80
2013,07,15,01,11,11.80
2013,07,15,01,12,11.80
2013,07,15,01,13,11.70
2013,07,15,01,14,11.70
2013,07,15,01,15,11.70
2013,07,15,01,16,11.70
2013,07,15,01,17,11.70
2013,07,15,01,18,11.70
2013,07,15,01,19,11.70
2013,07,15,01,20,11.70
2013,07,15,01,21,11.70
2013,07,15,01,22,11.70
2013,07,15,01,23,11.70
2013,07,15,01,24,11.70
2013,07,15,01,25,11.70
2013,07,15,01,26,11.70
2013,07,15,01,27,11.70
2013,07,15,01,28,11.70
2013,07,15,01,29,11.70
2013,07,15,01,30,11.70
2013,07,15,01,31,11.70
2013,07,15,01,32,11.70
2013,07,15,01,33,11.60
2013,07,15,01,34,11.60
2013,07,15,01,35,11.60
2013,07,15,01,36,11.60
2013,07,15,01,37,11.60
2013,07,15,01,38,11.60
2013,07,15,01,39,11.50
2013,07,15,01,40,11.50
2013,07,15,01,41,11.40
2013,07,15,01,42,11.40
2013,07,15,01,43,11.40
2013,07,15,01,44,11.40
2013,07,15,01,45,11.40
2013,07,15,01,46,11.40
2013,07,15,01,47,11.40
2013,07,15,01,48,11.40
2013,07,15,01,49,11.30
2013,07,15,01,50,11.30
2013,07,15,01,51,11.30
2013,07,15,01,52,11.30
2013,07,15,01,53,11.30
2013,07,15,01,54,11.30
2013,07,15,01,55,11.30
2013,07,15,01,56,11.30
2013,07,15,01,57,11.30
2013,07,15,01,58,11.30
2013,07,15,01,59,11.20
2013,07,15,02,00,11.20
2013,07,15,02,01,11.20
2013,07,15,02,02,11.20
2013,07,15,02,03,11.20
2013,07,15,02,04,11.20
2013,07,15,02,05,11.20
2013,07,15,02,06,11.10
2013,07,15,02,07,11.10
2013,07,15,02,08,11.10
2013,07,15,02,09,11.10
2013,07,15,02,10,11.10
2013,07,15,02,11,11.20
2013,07,15,02,12,11.20
2013,07,15,02,13,11.20
2013,07,15,02,14,11.20
2013,07,15,02,15,11.20
2013,07,15,02,16,11.20
2013,07,15,02,17,11.20
2013,07,15,02,18,11.20
2013,07,15,02,19,11.20
2013,07,15,02,20,11.20
2013,07,15,02,21,11.10
2013,07,15,02,22,11.10
2013,07,15,02,23,11.10
2013,07,15,02,24,11.10
2013,07,15,02,25,11.10
2013,07,15,02,26,11.10
2013,07,15,02,27,11.10
2013,07,15,02,28,11.10
2013,07,15,02,29,11.10
2013,07,15,02,30,11.10
2013,07,15,02,31,11.10
2013,07,15,02,32,11.10
2013,07,15,02,33,11.00
2013,07,15,02,34,11.00
2013,07,15,02,35,11.00
2013,07,15,02,36,11.00
2013,07,15,02,37,10.90
2013,07,15,02,38,11.00
2013,07,15,02,39,10.90
2013,07,15,02,40,10.90
2013,07,15,02,41,10.90
2013,07,15,02,42,10.90
2013,07,15,02,43,10.90
2013,07,15,02,44,10.90
2013,07,15,02,45,10.90
2013,07,15,02,46,10.90
2013,07,15,02,47,10.90
2013,07,15,02,48,10.90
2013,07,15,02,49,10.90
2013,07,15,02,50,10.90
2013,07,15,02,51,10.90
2013,07,15,02,52,10.90
2013,07,15,02,53,10.90
2013,07,15,02,54,10.80
2013,07,15,02,55,10.80
2013,07,15,02,56,10.80
2013,07,15,02,57,10.80
2013,07,15,02,58,10.80
2013,07,15,02,59,10.80
2013,07,15,03,00,10.80
2013,07,15,03,01,10.80
2013,07,15,03,02,10.80
2013,07,15,03,03,10.70
2013,07,15,03,04,10.70
2013,07,15,03,05,10.70
2013,07,15,03,06,10.70
2013,07,15,03,07,10.70
2013,07,15,03,08,10.80
2013,07,15,03,09,10.80
2013,07,15,03,10,10.80
2013,07,15,03,11,10.80
2013,07,15,03,12,10.80
2013,07,15,03,13,10.70
2013,07,15,03,14,10.70
2013,07,15,03,15,10.70
2013,07,15,03,16,10.70
2013,07,15,03,17,10.70
2013,07,15,03,18,10.70
2013,07,15,03,19,10.70
2013,07,15,03,20,10.70
2013,07,15,03,21,10.70
2013,07,15,03,22,10.70
2013,07,15,03,23,10.70
2013,07,15,03,24,10.70
2013,07,15,03,25,10.70
2013,07,15,03,26,10.70
2013,07,15,03,27,10.70
2013,07,15,03,28,10.70
2013,07,15,03,29,10.70
2013,07,15,03,30,10.70
2013,07,15,03,31,10.70
2013,07,15,03,32,10.70
2013,07,15,03,33,10.70
2013,07,15,03,34,10.60
2013,07,15,03,35,10.60
2013,07,15,03,36,10.60
2013,07,15,03,37,10.60
2013,07,15,03,38,10.60
2013,07,15,03,39,10.60
2013,07,15,03,40,10.60
2013,07,15,03,41,10.60
2013,07,15,03,42,10.60
2013,07,15,03,43,10.60
2013,07,15,03,44,10.60
2013,07,15,03,45,10.50
2013,07,15,03,46,10.50
2013,07,15,03,47,10.50
2013,07,15,03,48,10.50
2013,07,15,03,49,10.50
2013,07,15,03,50,10.50
2013,07,15,03,51,10.50
2013,07,15,03,52,10.50
2013,07,15,03,53,10.50
2013,07,15,03,54,10.50
2013,07,15,03,55,10.50
2013,07,15,03,56,10.50
2013,07,15,03,57,10.50
2013,07,15,03,58,10.50
2013,07,15,03,59,10.50
2013,07,15,04,00,10.40
2013,07,15,04,01,10.40
2013,07,15,04,02,10.50
2013,07,15,04,03,10.50
2013,07,15,04,04,10.40
2013,07,15,04,05,10.40
2013,07,15,04,06,10.40
2013,07,15,04,07,10.40
2013,07,15,04,08,10.40
2013,07,15,04,09,10.40
2013,07,15,04,10,10.40
2013,07,15,04,11,10.40
2013,07,15,04,12,10.40
2013,07,15,04,13,10.30
2013,07,15,04,14,10.30
2013,07,15,04,15,10.30
2013,07,15,04,16,10.30
2013,07,15,04,17,10.30
2013,07,15,04,18,10.30
2013,07,15,04,19,10.40
2013,07,15,04,20,10.40
2013,07,15,04,21,10.30
2013,07,15,04,22,10.30
2013,07,15,04,23,10.30
2013,07,15,04,24,10.30
2013,07,15,04,25,10.30
2013,07,15,04,26,10.30
2013,07,15,04,27,10.30
2013,07,15,04,28,10.30
2013,07,15,04,29,10.30
2013,07,15,04,30,10.30
2013,07,15,04,31,10.30
2013,07,15,04,32,10.30
2013,07,15,04,33,10.30
2013,07,15,04,34,10.30
2013,07,15,04,35,10.30
2013,07,15,04,36,10.30
2013,07,15,04,37,10.30
2013,07,15,04,38,10.30
2013,07,15,04,39,10.30
2013,07,15,04,40,10.30
2013,07,15,04,41,10.30
2013,07,15,04,42,10.30
2013,07,15,04,43,10.30
2013,07,15,04,44,10.30
2013,07,15,04,45,10.40
2013,07,15,04,46,10.40
2013,07,15,04,47,10.40
2013,07,15,04,48,10.40
2013,07,15,04,49,10.40
2013,07,15,04,50,10.40
2013,07,15,04,51,10.40
2013,07,15,04,52,10.40
2013,07,15,04,53,10.40
2013,07,15,04,54,10.40
2013,07,15,04,55,10.40
2013,07,15,04,56,10.40
2013,07,15,04,57,10.30
2013,07,15,04,58,10.30
2013,07,15,04,59,10.30
2013,07,15,05,00,10.30
2013,07,15,05,01,10.30
2013,07,15,05,02,10.20
2013,07,15,05,03,10.20
2013,07,15,05,04,10.20
2013,07,15,05,05,10.20
2013,07,15,05,06,10.20
2013,07,15,05,07,10.20
2013,07,15,05,08,10.20
2013,07,15,05,09,10.20
2013,07,15,05,10,10.20
2013,07,15,05,11,10.20
2013,07,15,05,12,10.20
2013,07,15,05,13,10.20
2013,07,15,05,14,10.20
2013,07,15,05,15,10.20
2013,07,15,05,16,10.20
2013,07,15,05,17,10.20
2013,07,15,05,18,10.20
2013,07,15,05,19,10.20
2013,07,15,05,20,10.20
2013,07,15,05,21,10.20
2013,07,15,05,22,10.20
2013,07,15,05,23,10.20
2013,07,15,05,24,10.20
2013,07,15,05,25,10.20
2013,07,15,05,26,10.20
2013,07,15,05,27,10.20
2013,07,15,05,28,10.20
2013,07,15,05,29,10.20
2013,07,15,05,30,10.20
2013,07,15,05,31,10.20
2013,07,15,05,32,10.20
2013,07,15,05,33,10.20
2013,07,15,05,34,10.20
2013,07,15,05,35,10.20
2013,07,15,05,36,10.20
2013,07,15,05,37,10.20
2013,07,15,05,38,10.20
2013,07,15,05,39,10.10
2013,07,15,05,40,10.10
2013,07,15,05,41,10.10
2013,07,15,05,42,10.20
2013,07,15,05,43,10.20
2013,07,15,05,44,10.20
2013,07,15,05,45,10.20
2013,07,15,05,46,10.20
2013,07,15,05,47,10.20
2013,07,15,05,48,10.20
2013,07,15,05,49,10.20
2013,07,15,05,50,10.20
2013,07,15,05,51,10.20
2013,07,15,05,52,10.20
2013,07,15,05,53,10.20
2013,07,15,05,54,10.20
2013,07,15,05,55,10.20
2013,07,15,05,56,10.20
2013,07,15,05,57,10.20
2013,07,15,05,58,10.20
2013,07,15,05,59,10.20
2013,07,15,06,00,10.20
2013,07,15,06,01,10.20
2013,07,15,06,02,10.20
2013,07,15,06,03,10.20
2013,07,15,06,04,10.30
2013,07,15,06,05,10.30
2013,07,15,06,06,10.30
2013,07,15,06,07,10.30
2013,07,15,06,08,10.40
2013,07,15,06,09,10.40
2013,07,15,06,10,10.50
2013,07,15,06,11,10.50
2013,07,15,06,12,10.50
2013,07,15,06,13,10.50
2013,07,15,06,14,10.50
2013,07,15,06,15,10.50
2013,07,15,06,16,10.50
2013,07,15,06,17,10.50
2013,07,15,06,18,10.50
2013,07,15,06,19,10.40
2013,07,15,06,20,10.40
2013,07,15,06,21,10.40
2013,07,15,06,22,10.40
2013,07,15,06,23,10.40
2013,07,15,06,24,10.40
2013,07,15,06,25,10.40
2013,07,15,06,26,10.40
2013,07,15,06,27,10.50
2013,07,15,06,28,10.50
2013,07,15,06,29,10.50
2013,07,15,06,30,10.60
2013,07,15,06,31,10.60
2013,07,15,06,32,10.60
2013,07,15,06,33,10.60
2013,07,15,06,34,10.60
2013,07,15,06,35,10.60
2013,07,15,06,36,10.60
2013,07,15,06,37,10.50
2013,07,15,06,38,10.60
2013,07,15,06,39,10.60
2013,07,15,06,40,10.60
2013,07,15,06,41,10.60
2013,07,15,06,42,10.70
2013,07,15,06,43,10.70
2013,07,15,06,44,10.70
2013,07,15,06,45,10.70
2013,07,15,06,46,10.80
2013,07,15,06,47,10.80
2013,07,15,06,48,10.80
2013,07,15,06,49,10.80
2013,07,15,06,50,10.90
2013,07,15,06,51,10.90
2013,07,15,06,52,11.00
2013,07,15,06,53,11.00
2013,07,15,06,54,11.00
2013,07,15,06,55,11.10
2013,07,15,06,56,11.10
2013,07,15,06,57,11.20
2013,07,15,06,58,11.20
2013,07,15,06,59,11.20
2013,07,15,07,00,11.30
2013,07,15,07,01,11.30
2013,07,15,07,02,11.30
2013,07,15,07,03,11.40
2013,07,15,07,04,11.40
2013,07,15,07,05,11.50
2013,07,15,07,06,11.50
2013,07,15,07,07,11.60
2013,07,15,07,08,11.60
2013,07,15,07,09,11.60
2013,07,15,07,10,11.70
2013,07,15,07,11,11.70
2013,07,15,07,12,11.80
2013,07,15,07,13,11.80
2013,07,15,07,14,11.90
2013,07,15,07,15,11.90
2013,07,15,07,16,11.90
2013,07,15,07,17,11.90
2013,07,15,07,18,11.90
2013,07,15,07,19,11.90
2013,07,15,07,20,11.90
2013,07,15,07,21,12.00
2013,07,15,07,22,12.00
2013,07,15,07,23,12.10
2013,07,15,07,24,12.10
2013,07,15,07,25,12.10
2013,07,15,07,26,12.20
2013,07,15,07,27,12.20
2013,07,15,07,28,12.30
2013,07,15,07,29,12.40
2013,07,15,07,30,12.50
2013,07,15,07,31,12.60
2013,07,15,07,32,12.60
2013,07,15,07,33,12.70
2013,07,15,07,34,12.70
2013,07,15,07,35,12.70
2013,07,15,07,36,12.80
2013,07,15,07,37,12.90
2013,07,15,07,38,12.90
2013,07,15,07,39,13.00
2013,07,15,07,40,13.10
2013,07,15,07,41,13.20
2013,07,15,07,42,13.20
2013,07,15,07,43,13.20
2013,07,15,07,44,13.30
2013,07,15,07,45,13.30
2013,07,15,07,46,13.40
2013,07,15,07,47,13.40
2013,07,15,07,48,13.50
2013,07,15,07,49,13.60
2013,07,15,07,50,13.60
2013,07,15,07,51,13.60
2013,07,15,07,52,13.70
2013,07,15,07,53,13.70
2013,07,15,07,54,13.80
2013,07,15,07,55,13.80
2013,07,15,07,56,13.90
2013,07,15,07,57,14.00
2013,07,15,07,58,14.10
2013,07,15,07,59,14.20
2013,07,15,08,00,14.20
2013,07,15,08,01,14.20
2013,07,15,08,02,14.20
2013,07,15,08,03,14.20
2013,07,15,08,04,14.20
2013,07,15,08,05,14.20
2013,07,15,08,06,14.30
2013,07,15,08,07,14.40
2013,07,15,08,08,14.40
2013,07,15,08,09,14.50
2013,07,15,08,10,14.60
2013,07,15,08,11,14.70
2013,07,15,08,12,14.70
2013,07,15,08,13,14.80
2013,07,15,08,14,14.80
2013,07,15,08,15,14.90
2013,07,15,08,16,14.90
2013,07,15,08,17,15.00
2013,07,15,08,18,15.00
2013,07,15,08,19,15.10
2013,07,15,08,20,15.10
2013,07,15,08,21,15.20
2013,07,15,08,22,15.20
2013,07,15,08,23,15.30
2013,07,15,08,24,15.40
2013,07,15,08,25,15.50
2013,07,15,08,26,15.50
2013,07,15,08,27,15.60
2013,07,15,08,28,15.60
2013,07,15,08,29,15.60
2013,07,15,08,30,15.60
2013,07,15,08,31,15.70
2013,07,15,08,32,15.70
2013,07,15,08,33,15.70
2013,07,15,08,34,15.70
2013,07,15,08,35,15.70
2013,07,15,08,36,15.70
2013,07,15,08,37,15.80
2013,07,15,08,38,15.80
2013,07,15,08,39,15.80
2013,07,15,08,40,15.90
2013,07,15,08,41,16.00
2013,07,15,08,42,16.10
2013,07,15,08,43,16.20
2013,07,15,08,44,16.30
2013,07,15,08,45,16.30
2013,07,15,08,46,16.50
2013,07,15,08,47,16.60
2013,07,15,08,48,16.70
2013,07,15,08,49,16.80
2013,07,15,08,50,16.90
2013,07,15,08,51,17.10
2013,07,15,08,52,17.20
2013,07,15,08,53,17.30
2013,07,15,08,54,17.40
2013,07,15,08,55,17.50
2013,07,15,08,56,17.50
2013,07,15,08,57,17.60
2013,07,15,08,58,17.70
2013,07,15,08,59,17.70
2013,07,15,09,00,17.70
2013,07,15,09,01,17.80
2013,07,15,09,02,17.80
2013,07,15,09,03,17.80
2013,07,15,09,04,17.80
2013,07,15,09,05,17.90
2013,07,15,09,06,17.90
2013,07,15,09,07,18.00
2013,07,15,09,08,18.00
2013,07,15,09,09,18.10
2013,07,15,09,10,18.20
2013,07,15,09,11,18.30
2013,07,15,09,12,18.40
2013,07,15,09,13,18.50
2013,07,15,09,14,18.60
2013,07,15,09,15,18.70
2013,07,15,09,16,18.90
2013,07,15,09,17,19.00
2013,07,15,09,18,19.20
2013,07,15,09,19,19.30
2013,07,15,09,20,19.40
2013,07,15,09,21,19.60
2013,07,15,09,22,19.80
2013,07,15,09,23,19.80
2013,07,15,09,24,19.80
2013,07,15,09,25,19.80
2013,07,15,09,26,19.90
2013,07,15,09,27,19.90
2013,07,15,09,28,19.90
2013,07,15,09,29,19.90
2013,07,15,09,30,20.00
2013,07,15,09,31,20.10
2013,07,15,09,32,20.20
2013,07,15,09,33,20.20
2013,07,15,09,34,20.30
2013,07,15,09,35,20.30
2013,07,15,09,36,20.30
2013,07,15,09,37,20.30
2013,07,15,09,38,20.20
2013,07,15,09,39,20.20
2013,07,15,09,40,20.20
2013,07,15,09,41,20.30
2013,07,15,09,42,20.30
2013,07,15,09,43,20.30
2013,07,15,09,44,20.40
2013,07,15,09,45,20.40
2013,07,15,09,46,20.40
2013,07,15,09,47,20.50
2013,07,15,09,48,20.50
2013,07,15,09,49,20.40
2013,07,15,09,50,20.40
2013,07,15,09,51,20.40
2013,07,15,09,52,20.30
2013,07,15,09,53,20.30
2013,07,15,09,54,20.30
2013,07,15,09,55,20.30
2013,07,15,09,56,20.20
2013,07,15,09,57,20.10
2013,07,15,09,58,19.90
2013,07,15,09,59,19.60
2013,07,15,10,00,19.40
2013,07,15,10,01,19.20
2013,07,15,10,02,19.10
2013,07,15,10,03,18.90
2013,07,15,10,04,18.80
2013,07,15,10,05,18.70
2013,07,15,10,06,18.50
2013,07,15,10,07,18.40
2013,07,15,10,08,18.30
2013,07,15,10,09,18.30
2013,07,15,10,10,18.20
2013,07,15,10,11,18.20
2013,07,15,10,12,18.20
2013,07,15,10,13,18.20
2013,07,15,10,14,18.20
2013,07,15,10,15,18.20
2013,07,15,10,16,18.20
2013,07,15,10,17,18.20
2013,07,15,10,18,18.20
2013,07,15,10,19,18.20
2013,07,15,10,20,18.20
2013,07,15,10,21,18.30
2013,07,15,10,22,18.30
2013,07,15,10,23,18.30
2013,07,15,10,24,18.30
2013,07,15,10,25,18.40
2013,07,15,10,26,18.40
2013,07,15,10,27,18.40
2013,07,15,10,28,18.40
2013,07,15,10,29,18.40
2013,07,15,10,30,18.40
2013,07,15,10,31,18.30
2013,07,15,10,32,18.30
2013,07,15,10,33,18.30
2013,07,15,10,34,18.30
2013,07,15,10,35,18.30
2013,07,15,10,36,18.30
2013,07,15,10,37,18.20
2013,07,15,10,38,18.20
2013,07,15,10,39,18.20
2013,07,15,10,40,18.20
2013,07,15,10,41,18.10
2013,07,15,10,42,18.10
2013,07,15,10,43,18.10
2013,07,15,10,44,18.10
2013,07,15,10,45,18.00
2013,07,15,10,46,18.00
2013,07,15,10,47,18.00
2013,07,15,10,48,18.10
2013,07,15,10,49,18.10
2013,07,15,10,50,18.20
2013,07,15,10,51,18.20
2013,07,15,10,52,18.30
2013,07,15,10,53,18.30
2013,07,15,10,54,18.30
2013,07,15,10,55,18.40
2013,07,15,10,56,18.40
2013,07,15,10,57,18.50
2013,07,15,10,58,18.50
2013,07,15,10,59,18.50
2013,07,15,11,00,18.60
2013,07,15,11,01,18.60
2013,07,15,11,02,18.60
2013,07,15,11,03,18.60
2013,07,15,11,04,18.60
2013,07,15,11,05,18.70
2013,07,15,11,06,18.80
2013,07,15,11,07,18.80
2013,07,15,11,08,18.80
2013,07,15,11,09,18.90
2013,07,15,11,10,19.00
2013,07,15,11,11,19.10
2013,07,15,11,12,19.20
2013,07,15,11,13,19.30
2013,07,15,11,14,19.30
2013,07,15,11,15,19.30
2013,07,15,11,16,19.40
2013,07,15,11,17,19.40
2013,07,15,11,18,19.40
2013,07,15,11,19,19.40
2013,07,15,11,20,19.50
2013,07,15,11,21,19.50
2013,07,15,11,22,19.50
2013,07,15,11,23,19.40
2013,07,15,11,24,19.40
2013,07,15,11,25,19.40
2013,07,15,11,26,19.50
2013,07,15,11,27,19.50
2013,07,15,11,28,19.60
2013,07,15,11,29,19.70
2013,07,15,11,30,19.80
2013,07,15,11,31,19.90
2013,07,15,11,32,19.90
2013,07,15,11,33,20.00
2013,07,15,11,34,20.10
2013,07,15,11,35,20.20
2013,07,15,11,36,20.30
2013,07,15,11,37,20.30
2013,07,15,11,38,20.40
2013,07,15,11,39,20.40
2013,07,15,11,40,20.50
2013,07,15,11,41,20.60
2013,07,15,11,42,20.60
2013,07,15,11,43,20.60
2013,07,15,11,44,20.60
2013,07,15,11,45,20.60
2013,07,15,11,46,20.50
2013,07,15,11,47,20.60
2013,07,15,11,48,20.60
2013,07,15,11,49,20.70
2013,07,15,11,50,20.70
2013,07,15,11,51,20.70
2013,07,15,11,52,20.70
2013,07,15,11,53,20.70
2013,07,15,11,54,20.70
2013,07,15,11,55,20.70
2013,07,15,11,56,20.70
2013,07,15,11,57,20.70
2013,07,15,11,58,20.70
2013,07,15,11,59,20.70
2013,07,15,12,00,20.60
2013,07,15,12,01,20.60
2013,07,15,12,02,20.60
2013,07,15,12,03,20.50
2013,07,15,12,04,20.40
2013,07,15,12,05,20.40
2013,07,15,12,06,20.30
2013,07,15,12,07,20.30
2013,07,15,12,08,20.30
2013,07,15,12,09,20.40
2013,07,15,12,10,20.50
2013,07,15,12,11,20.50
2013,07,15,12,12,20.60
2013,07,15,12,13,20.80
2013,07,15,12,14,20.90
2013,07,15,12,15,21.00
2013,07,15,12,16,21.10
2013,07,15,12,17,21.00
2013,07,15,12,18,21.00
2013,07,15,12,19,21.00
2013,07,15,12,20,21.10
2013,07,15,12,21,21.10
2013,07,15,12,22,21.20
2013,07,15,12,23,21.20
2013,07,15,12,24,21.20
2013,07,15,12,25,21.20
2013,07,15,12,26,21.20
2013,07,15,12,27,21.10
2013,07,15,12,28,21.10
2013,07,15,12,29,21.10
2013,07,15,12,30,21.10
2013,07,15,12,31,21.10
2013,07,15,12,32,21.10
2013,07,15,12,33,21.00
2013,07,15,12,34,21.00
2013,07,15,12,35,21.00
2013,07,15,12,36,21.00
2013,07,15,12,37,21.00
2013,07,15,12,38,21.00
2013,07,15,12,39,20.90
2013,07,15,12,40,21.00
2013,07,15,12,41,21.00
2013,07,15,12,42,21.20
2013,07,15,12,43,21.30
2013,07,15,12,44,21.30
2013,07,15,12,45,21.30
2013,07,15,12,46,21.30
2013,07,15,12,47,21.40
2013,07,15,12,48,21.40
2013,07,15,12,49,21.40
2013,07,15,12,50,21.50
2013,07,15,12,51,21.60
2013,07,15,12,52,21.80
2013,07,15,12,53,21.80
2013,07,15,12,54,21.80
2013,07,15,12,55,21.70
2013,07,15,12,56,21.70
2013,07,15,12,57,21.60
2013,07,15,12,58,21.50
2013,07,15,12,59,21.40
2013,07,15,13,00,21.20
2013,07,15,13,01,21.20
2013,07,15,13,02,21.10
2013,07,15,13,03,21.10
2013,07,15,13,04,21.10
2013,07,15,13,05,21.20
2013,07,15,13,06,21.10
2013,07,15,13,07,21.10
2013,07,15,13,08,21.00
2013,07,15,13,09,20.90
2013,07,15,13,10,20.90
2013,07,15,13,11,20.90
2013,07,15,13,12,20.90
2013,07,15,13,13,20.90
2013,07,15,13,14,20.90
2013,07,15,13,15,21.00
2013,07,15,13,16,21.10
2013,07,15,13,17,21.20
2013,07,15,13,18,21.20
2013,07,15,13,19,21.20
2013,07,15,13,20,21.10
2013,07,15,13,21,21.00
2013,07,15,13,22,20.90
2013,07,15,13,23,21.00
2013,07,15,13,24,21.10
2013,07,15,13,25,21.10
2013,07,15,13,26,21.20
2013,07,15,13,27,21.10
2013,07,15,13,28,21.10
2013,07,15,13,29,21.00
2013,07,15,13,30,20.90
2013,07,15,13,31,20.90
2013,07,15,13,32,20.80
2013,07,15,13,33,20.80
2013,07,15,13,34,20.80
2013,07,15,13,35,20.80
2013,07,15,13,36,20.80
2013,07,15,13,37,20.80
2013,07,15,13,38,20.80
2013,07,15,13,39,20.80
2013,07,15,13,40,20.80
2013,07,15,13,41,20.80
2013,07,15,13,42,20.80
2013,07,15,13,43,20.80
2013,07,15,13,44,20.80
2013,07,15,13,45,20.80
2013,07,15,13,46,20.70
2013,07,15,13,47,20.70
2013,07,15,13,48,20.70
2013,07,15,13,49,20.70
2013,07,15,13,50,20.80
2013,07,15,13,51,20.80
2013,07,15,13,52,20.90
2013,07,15,13,53,20.90
2013,07,15,13,54,20.80
2013,07,15,13,55,20.80
2013,07,15,13,56,20.80
2013,07,15,13,57,20.80
2013,07,15,13,58,20.70
2013,07,15,13,59,20.70
2013,07,15,14,00,20.80
2013,07,15,14,01,20.90
2013,07,15,14,02,20.90
2013,07,15,14,03,21.00
2013,07,15,14,04,21.10
2013,07,15,14,05,21.20
2013,07,15,14,06,21.20
2013,07,15,14,07,21.20
2013,07,15,14,08,21.30
2013,07,15,14,09,21.30
2013,07,15,14,10,21.40
2013,07,15,14,11,21.50
2013,07,15,14,12,21.40
2013,07,15,14,13,21.40
2013,07,15,14,14,21.40
2013,07,15,14,15,21.30
2013,07,15,14,16,21.20
2013,07,15,14,17,21.10
2013,07,15,14,18,21.20
2013,07,15,14,19,21.30
2013,07,15,14,20,21.40
2013,07,15,14,21,21.40
2013,07,15,14,22,21.50
2013,07,15,14,23,21.60
2013,07,15,14,24,21.50
2013,07,15,14,25,21.40
2013,07,15,14,26,21.40
2013,07,15,14,27,21.40
2013,07,15,14,28,21.40
2013,07,15,14,29,21.30
2013,07,15,14,30,21.30
2013,07,15,14,31,21.20
2013,07,15,14,32,21.20
2013,07,15,14,33,21.20
2013,07,15,14,34,21.20
2013,07,15,14,35,21.30
2013,07,15,14,36,21.30
2013,07,15,14,37,21.40
2013,07,15,14,38,21.50
2013,07,15,14,39,21.60
2013,07,15,14,40,21.60
2013,07,15,14,41,21.70
2013,07,15,14,42,21.80
2013,07,15,14,43,21.90
2013,07,15,14,44,22.00
2013,07,15,14,45,22.10
2013,07,15,14,46,22.10
2013,07,15,14,47,22.10
2013,07,15,14,48,22.10
2013,07,15,14,49,22.10
2013,07,15,14,50,22.10
2013,07,15,14,51,22.00
2013,07,15,14,52,21.90
2013,07,15,14,53,21.90
2013,07,15,14,54,21.90
2013,07,15,14,55,21.90
2013,07,15,14,56,21.90
2013,07,15,14,57,21.90
2013,07,15,14,58,21.90
2013,07,15,14,59,21.90
2013,07,15,15,00,21.90
2013,07,15,15,01,22.00
2013,07,15,15,02,22.00
2013,07,15,15,03,21.90
2013,07,15,15,04,21.90
2013,07,15,15,05,21.90
2013,07,15,15,06,21.90
2013,07,15,15,07,21.90
2013,07,15,15,08,21.90
2013,07,15,15,09,22.00
2013,07,15,15,10,22.00
2013,07,15,15,11,21.90
2013,07,15,15,12,21.90
2013,07,15,15,13,21.90
2013,07,15,15,14,22.00
2013,07,15,15,15,22.00
2013,07,15,15,16,22.10
2013,07,15,15,17,22.10
2013,07,15,15,18,22.10
2013,07,15,15,19,22.10
2013,07,15,15,20,22.10
2013,07,15,15,21,22.10
2013,07,15,15,22,22.10
2013,07,15,15,23,22.20
2013,07,15,15,24,22.20
2013,07,15,15,25,22.30
2013,07,15,15,26,22.30
2013,07,15,15,27,22.40
2013,07,15,15,28,22.50
2013,07,15,15,29,22.50
2013,07,15,15,30,22.50
2013,07,15,15,31,22.40
2013,07,15,15,32,22.30
2013,07,15,15,33,22.30
2013,07,15,15,34,22.20
2013,07,15,15,35,22.20
2013,07,15,15,36,22.10
2013,07,15,15,37,22.00
2013,07,15,15,38,22.10
2013,07,15,15,39,22.10
2013,07,15,15,40,22.10
2013,07,15,15,41,22.20
2013,07,15,15,42,22.30
2013,07,15,15,43,22.30
2013,07,15,15,44,22.20
2013,07,15,15,45,22.10
2013,07,15,15,46,22.10
2013,07,15,15,47,22.00
2013,07,15,15,48,22.00
2013,07,15,15,49,21.90
2013,07,15,15,50,21.80
2013,07,15,15,51,21.80
2013,07,15,15,52,21.70
2013,07,15,15,53,21.70
2013,07,15,15,54,21.60
2013,07,15,15,55,21.50
2013,07,15,15,56,21.40
2013,07,15,15,57,21.40
2013,07,15,15,58,21.40
2013,07,15,15,59,21.40
2013,07,15,16,00,21.30
2013,07,15,16,01,21.30
2013,07,15,16,02,21.30
2013,07,15,16,03,21.30
2013,07,15,16,04,21.30
2013,07,15,16,05,21.30
2013,07,15,16,06,21.30
2013,07,15,16,07,21.50
2013,07,15,16,08,21.50
2013,07,15,16,09,21.60
2013,07,15,16,10,21.70
2013,07,15,16,11,21.80
2013,07,15,16,12,21.80
2013,07,15,16,13,21.90
2013,07,15,16,14,21.80
2013,07,15,16,15,21.80
2013,07,15,16,16,21.70
2013,07,15,16,17,21.70
2013,07,15,16,18,21.70
2013,07,15,16,19,21.70
2013,07,15,16,20,21.80
2013,07,15,16,21,21.80
2013,07,15,16,22,21.80
2013,07,15,16,23,21.70
2013,07,15,16,24,21.70
2013,07,15,16,25,21.60
2013,07,15,16,26,21.60
2013,07,15,16,27,21.70
2013,07,15,16,28,21.70
2013,07,15,16,29,21.70
2013,07,15,16,30,21.60
2013,07,15,16,31,21.60
2013,07,15,16,32,21.50
2013,07,15,16,33,21.50
2013,07,15,16,34,21.50
2013,07,15,16,35,21.40
2013,07,15,16,36,21.40
2013,07,15,16,37,21.40
2013,07,15,16,38,21.40
2013,07,15,16,39,21.40
2013,07,15,16,40,21.40
2013,07,15,16,41,21.40
2013,07,15,16,42,21.40
2013,07,15,16,43,21.50
2013,07,15,16,44,21.60
2013,07,15,16,45,21.70
2013,07,15,16,46,21.60
2013,07,15,16,47,21.60
2013,07,15,16,48,21.60
2013,07,15,16,49,21.60
2013,07,15,16,50,21.60
2013,07,15,16,51,21.70
2013,07,15,16,52,21.70
2013,07,15,16,53,21.80
2013,07,15,16,54,21.80
2013,07,15,16,55,21.80
2013,07,15,16,56,21.80
2013,07,15,16,57,21.80
2013,07,15,16,58,21.80
2013,07,15,16,59,21.90
2013,07,15,17,00,22.00
2013,07,15,17,01,22.00
2013,07,15,17,02,22.10
2013,07,15,17,03,22.20
2013,07,15,17,04,22.30
2013,07,15,17,05,22.30
2013,07,15,17,06,22.40
2013,07,15,17,07,22.30
2013,07,15,17,08,22.30
2013,07,15,17,09,22.30
2013,07,15,17,10,22.30
2013,07,15,17,11,22.30
2013,07,15,17,12,22.20
2013,07,15,17,13,22.20
2013,07,15,17,14,22.30
2013,07,15,17,15,22.30
2013,07,15,17,16,22.30
2013,07,15,17,17,22.30
2013,07,15,17,18,22.30
2013,07,15,17,19,22.30